TimePST,TemperatureF,Dew PointF,Humidity,Sea Level PressureIn,VisibilityMPH,Wind Direction,Wind SpeedMPH,Gust SpeedMPH,PrecipitationIn,Events,Conditions,WindDirDegrees,DateUTC
12:15 AM,15.8,8.6,73,30.18,10.0,ESE,5.8,-,N/A,,Clear,120,2013-02-24 08:15:00
12:35 AM,14.0,8.6,79,30.17,10.0,SE,6.9,-,N/A,,Clear,140,2013-02-24 08:35:00
12:55 AM,14.0,8.6,79,30.18,10.0,Calm,Calm,-,N/A,,Clear,0,2013-02-24 08:55:00
1:15 AM,12.2,8.6,85,30.18,10.0,Calm,Calm,-,N/A,,Clear,0,2013-02-24 09:15:00
1:35 AM,14.0,8.6,79,30.18,10.0,Calm,Calm,-,N/A,,Clear,0,2013-02-24 09:35:00
1:55 AM,12.2,8.6,85,30.19,10.0,Calm,Calm,-,N/A,,Clear,0,2013-02-24 09:55:00
2:15 AM,10.4,8.6,92,30.19,10.0,South,4.6,-,N/A,,Clear,190,2013-02-24 10:15:00
2:35 AM,12.2,8.6,85,30.18,10.0,SSE,4.6,-,N/A,,Clear,150,2013-02-24 10:35:00
2:55 AM,10.4,6.8,85,30.18,10.0,Calm,Calm,-,N/A,,Clear,0,2013-02-24 10:55:00
3:15 AM,12.2,8.6,85,30.18,10.0,Calm,Calm,-,N/A,,Clear,0,2013-02-24 11:15:00
3:35 AM,12.2,8.6,85,30.19,10.0,SE,4.6,-,N/A,,Clear,130,2013-02-24 11:35:00
3:55 AM,10.4,6.8,85,30.19,10.0,South,3.5,-,N/A,,Clear,180,2013-02-24 11:55:00
4:15 AM,12.2,8.6,85,30.19,10.0,SE,3.5,-,N/A,,Clear,140,2013-02-24 12:15:00
4:35 AM,10.4,6.8,85,30.19,10.0,Calm,Calm,-,N/A,,Clear,0,2013-02-24 12:35:00
4:55 AM,10.4,6.8,85,30.20,10.0,Calm,Calm,-,N/A,,Clear,0,2013-02-24 12:55:00
5:15 AM,10.4,6.8,85,30.21,10.0,Calm,Calm,-,N/A,,Clear,0,2013-02-24 13:15:00
5:35 AM,10.4,6.8,85,30.21,10.0,SE,3.5,-,N/A,,Clear,140,2013-02-24 13:35:00
7:45 AM,14.0,10.4,86,30.25,10.0,Calm,Calm,-,N/A,,Partly Cloudy,0,2013-02-24 15:45:00
8:55 AM,21.2,12.2,68,30.26,10.0,NNE,4.6,-,N/A,,Scattered Clouds,30,2013-02-24 16:55:00
9:55 AM,26.6,12.2,55,30.26,10.0,NNE,9.2,-,N/A,,Partly Cloudy,30,2013-02-24 17:55:00
11:45 AM,30.2,14.0,51,30.26,10.0,NE,8.1,-,N/A,,Partly Cloudy,50,2013-02-24 19:45:00
11:55 AM,28.4,12.2,51,30.26,10.0,NNE,8.1,-,N/A,,Partly Cloudy,30,2013-02-24 19:55:00
1:45 PM,35.6,8.6,33,30.23,10.0,North,6.9,-,N/A,,Mostly Cloudy,10,2013-02-24 21:45:00
2:50 PM,37.4,8.6,30,30.22,10.0,North,4.6,-,N/A,,Scattered Clouds,10,2013-02-24 22:50:00
3:45 PM,39.2,6.8,26,30.21,10.0,NNW,4.6,-,N/A,,Partly Cloudy,330,2013-02-24 23:45:00
4:50 PM,37.4,10.4,33,30.21,10.0,North,5.8,-,N/A,,Partly Cloudy,350,2013-02-25 00:50:00
4:55 PM,37.4,10.4,33,30.21,10.0,North,5.8,-,N/A,,Clear,10,2013-02-25 00:55:00
5:15 PM,37.4,10.4,33,30.21,10.0,North,4.6,-,N/A,,Clear,360,2013-02-25 01:15:00
5:35 PM,35.6,10.4,35,30.21,10.0,Calm,Calm,-,N/A,,Clear,0,2013-02-25 01:35:00
5:55 PM,35.6,8.6,33,30.21,10.0,Calm,Calm,-,N/A,,Clear,0,2013-02-25 01:55:00
6:15 PM,28.4,15.8,59,30.21,10.0,SW,3.5,-,N/A,,Clear,230,2013-02-25 02:15:00
6:35 PM,26.6,15.8,64,30.23,10.0,Calm,Calm,-,N/A,,Clear,0,2013-02-25 02:35:00
6:55 PM,28.4,14.0,55,30.23,10.0,Calm,Calm,-,N/A,,Clear,0,2013-02-25 02:55:00
7:15 PM,24.8,15.8,69,30.23,10.0,Calm,Calm,-,N/A,,Clear,0,2013-02-25 03:15:00
7:35 PM,24.8,14.0,64,30.23,10.0,Calm,Calm,-,N/A,,Clear,0,2013-02-25 03:35:00
7:55 PM,24.8,15.8,69,30.23,10.0,Calm,Calm,-,N/A,,Clear,0,2013-02-25 03:55:00
8:15 PM,26.6,14.0,59,30.24,10.0,Calm,Calm,-,N/A,,Clear,0,2013-02-25 04:15:00
8:35 PM,24.8,14.0,64,30.23,10.0,SE,3.5,-,N/A,,Clear,130,2013-02-25 04:35:00
8:55 PM,23.0,14.0,68,30.24,10.0,Calm,Calm,-,N/A,,Clear,0,2013-02-25 04:55:00
9:15 PM,23.0,14.0,68,30.24,10.0,Calm,Calm,-,N/A,,Clear,0,2013-02-25 05:15:00
9:35 PM,23.0,14.0,68,30.24,10.0,Calm,Calm,-,N/A,,Clear,0,2013-02-25 05:35:00
9:55 PM,23.0,12.2,63,30.24,10.0,SE,3.5,-,N/A,,Clear,130,2013-02-25 05:55:00
10:15 PM,19.4,14.0,80,30.24,10.0,WSW,3.5,-,N/A,,Clear,250,2013-02-25 06:15:00
10:35 PM,21.2,12.2,68,30.24,10.0,Calm,Calm,-,N/A,,Clear,0,2013-02-25 06:35:00
10:55 PM,19.4,14.0,80,30.24,10.0,Calm,Calm,-,N/A,,Clear,0,2013-02-25 06:55:00
11:15 PM,21.2,12.2,68,30.24,10.0,Calm,Calm,-,N/A,,Clear,0,2013-02-25 07:15:00
11:35 PM,19.4,14.0,80,30.23,10.0,Calm,Calm,-,N/A,,Clear,0,2013-02-25 07:35:00
11:55 PM,19.4,14.0,80,30.23,10.0,Calm,Calm,-,N/A,,Clear,0,2013-02-25 07:55:00